EN

Hourly Weather Dzialki

Today, 31 October, Saturday

Time Temperature Precipitation Wind Pressure Humidity
00:00 +9°C° 0.5 mm 2 mps 742 mmHg 96%
01:00 +9°C° 0 mm 3 mps 742 mmHg 98%
02:00 +9°C° 0.4 mm 2 mps 742 mmHg 97%
03:00 +9°C° 0.4 mm 2 mps 742 mmHg 96%
04:00 +9°C° 0.4 mm 2 mps 743 mmHg 94%
05:00 +8°C° 0.2 mm 2 mps 743 mmHg 93%
06:00 +8°C° 0.2 mm 2 mps 744 mmHg 92%
07:00 +8°C° 0.2 mm 2 mps 744 mmHg 90%
08:00 +8°C° 0 mm 2 mps 745 mmHg 85%
09:00 +9°C° 0 mm 2 mps 745 mmHg 80%
10:00 +9°C° 0 mm 2 mps 745 mmHg 75%
11:00 +10°C° 0 mm 2 mps 746 mmHg 70%
12:00 +12°C° 0 mm 2 mps 746 mmHg 64%
13:00 +13°C° 0 mm 1 mps 746 mmHg 59%
14:00 +12°C° 0 mm 1 mps 746 mmHg 62%
15:00 +12°C° 0 mm 1 mps 746 mmHg 64%
16:00 +11°C° 0 mm 1 mps 746 mmHg 67%
17:00 +10°C° 0 mm 1 mps 746 mmHg 70%
18:00 +10°C° 0 mm 1 mps 746 mmHg 72%
19:00 +8°C° 0 mm 2 mps 746 mmHg 75%
20:00 +8°C° 0 mm 2 mps 746 mmHg 77%
21:00 +7°C° 0 mm 2 mps 746 mmHg 79%
22:00 +7°C° 0 mm 3 mps 746 mmHg 81%
23:00 +7°C° 0 mm 3 mps 746 mmHg 82%

Tomorrow, 1 November, Sunday

Time Temperature Precipitation Wind Pressure Humidity
00:00 +5°C° 0 mm 3 mps 746 mmHg 82%
01:00 +5°C° 0 mm 3 mps 746 mmHg 83%
02:00 +5°C° 0 mm 3 mps 745 mmHg 82%
03:00 +5°C° 0 mm 3 mps 745 mmHg 81%
04:00 +4°C° 0 mm 3 mps 745 mmHg 81%
05:00 +4°C° 0 mm 4 mps 744 mmHg 81%
06:00 +4°C° 0 mm 4 mps 744 mmHg 81%
07:00 +4°C° 0 mm 4 mps 744 mmHg 81%
08:00 +6°C° 0 mm 4 mps 744 mmHg 80%
09:00 +8°C° 0 mm 5 mps 744 mmHg 79%
10:00 +9°C° 0 mm 5 mps 743 mmHg 78%
11:00 +10°C° 0 mm 5 mps 743 mmHg 77%
12:00 +12°C° 0 mm 5 mps 743 mmHg 75%
13:00 +13°C° 0 mm 5 mps 742 mmHg 73%
14:00 +12°C° 0.1 mm 5 mps 742 mmHg 76%
15:00 +12°C° 0.1 mm 4 mps 741 mmHg 80%
16:00 +11°C° 0.1 mm 4 mps 741 mmHg 84%
17:00 +11°C° 1 mm 4 mps 741 mmHg 87%
18:00 +10°C° 1 mm 4 mps 741 mmHg 90%
19:00 +10°C° 1 mm 4 mps 740 mmHg 93%
20:00 +10°C° 0.6 mm 4 mps 740 mmHg 93%
21:00 +10°C° 0.6 mm 4 mps 740 mmHg 92%
22:00 +10°C° 0.6 mm 4 mps 740 mmHg 92%
23:00 +10°C° 0.3 mm 4 mps 739 mmHg 92%

Day after tomorrow, 2 November, Monday

Time Temperature Precipitation Wind Pressure Humidity
00:00 +10°C° 0.3 mm 4 mps 739 mmHg 92%
01:00 +10°C° 0.3 mm 4 mps 739 mmHg 93%
02:00 +11°C° 0.4 mm 4 mps 739 mmHg 93%
03:00 +11°C° 0.4 mm 4 mps 739 mmHg 94%
04:00 +11°C° 0.4 mm 4 mps 739 mmHg 94%
05:00 +11°C° 0.1 mm 4 mps 739 mmHg 94%
06:00 +12°C° 0.1 mm 3 mps 740 mmHg 94%
07:00 +12°C° 0.1 mm 3 mps 740 mmHg 95%
08:00 +12°C° 0 mm 3 mps 740 mmHg 94%
09:00 +12°C° 0 mm 3 mps 740 mmHg 92%
10:00 +13°C° 0 mm 3 mps 741 mmHg 91%
11:00 +13°C° 0 mm 3 mps 741 mmHg 92%
12:00 +13°C° 0 mm 3 mps 741 mmHg 92%
13:00 +13°C° 0 mm 3 mps 741 mmHg 93%
14:00 +13°C° 0.2 mm 3 mps 741 mmHg 93%
15:00 +13°C° 0.2 mm 3 mps 741 mmHg 94%
16:00 +13°C° 0.2 mm 3 mps 741 mmHg 95%
17:00 +13°C° 0 mm 3 mps 741 mmHg 94%
18:00 +13°C° 0 mm 3 mps 741 mmHg 94%
19:00 +13°C° 0 mm 3 mps 741 mmHg 93%
20:00 +13°C° 0 mm 3 mps 741 mmHg 93%
21:00 +13°C° 0 mm 3 mps 741 mmHg 93%
22:00 +13°C° 0 mm 3 mps 742 mmHg 93%
23:00 +13°C° 0 mm 3 mps 742 mmHg 93%

3 November, Tuesday

Time Temperature Precipitation Wind Pressure Humidity
00:00 +13°C° 0 mm 3 mps 742 mmHg 93%
01:00 +13°C° 0 mm 3 mps 742 mmHg 93%
02:00 +13°C° 0 mm 3 mps 742 mmHg 93%
03:00 +13°C° 0 mm 3 mps 742 mmHg 93%
04:00 +13°C° 0 mm 4 mps 742 mmHg 93%
05:00 +13°C° 0 mm 3 mps 742 mmHg 93%
06:00 +13°C° 0 mm 3 mps 742 mmHg 92%
07:00 +13°C° 0 mm 3 mps 743 mmHg 92%
08:00 +13°C° 0.2 mm 3 mps 743 mmHg 92%
09:00 +14°C° 0.2 mm 3 mps 744 mmHg 91%
10:00 +14°C° 0.2 mm 3 mps 744 mmHg 91%
11:00 +13°C° 0.2 mm 3 mps 744 mmHg 86%
12:00 +13°C° 0.2 mm 4 mps 745 mmHg 80%
13:00 +12°C° 0.2 mm 4 mps 745 mmHg 75%
14:00 +12°C° 0 mm 3 mps 746 mmHg 75%
15:00 +12°C° 0 mm 3 mps 746 mmHg 75%
16:00 +13°C° 0 mm 2 mps 746 mmHg 75%
17:00 +12°C° 0 mm 2 mps 747 mmHg 75%
18:00 +12°C° 0 mm 2 mps 747 mmHg 75%
19:00 +10°C° 0 mm 2 mps 748 mmHg 74%
20:00 +10°C° 0 mm 2 mps 748 mmHg 76%
21:00 +10°C° 0 mm 2 mps 749 mmHg 77%
22:00 +9°C° 0 mm 2 mps 749 mmHg 78%
23:00 +9°C° 0 mm 2 mps 749 mmHg 78%

4 November, Wednesday

Time Temperature Precipitation Wind Pressure Humidity
00:00 +9°C° 0 mm 2 mps 749 mmHg 77%
01:00 +9°C° 0 mm 2 mps 749 mmHg 77%
02:00 +8°C° 0 mm 2 mps 750 mmHg 78%
03:00 +8°C° 0 mm 2 mps 750 mmHg 78%
04:00 +8°C° 0 mm 2 mps 750 mmHg 79%
05:00 +8°C° 0 mm 2 mps 750 mmHg 81%
06:00 +7°C° 0 mm 2 mps 750 mmHg 83%
07:00 +7°C° 0 mm 2 mps 750 mmHg 85%
08:00 +9°C° 0 mm 1 mps 750 mmHg 79%
09:00 +9°C° 0 mm 1 mps 750 mmHg 73%
10:00 +10°C° 0 mm 1 mps 751 mmHg 67%
11:00 +10°C° 0 mm 1 mps 750 mmHg 64%
12:00 +11°C° 0 mm 1 mps 750 mmHg 61%
13:00 +10°C° 0 mm 2 mps 750 mmHg 57%
14:00 +11°C° 0 mm 1 mps 750 mmHg 60%
15:00 +10°C° 0 mm 1 mps 750 mmHg 62%
16:00 +10°C° 0 mm 1 mps 750 mmHg 65%
17:00 +9°C° 0 mm 1 mps 750 mmHg 66%
18:00 +9°C° 0 mm 1 mps 751 mmHg 68%
19:00 +8°C° 0 mm 2 mps 751 mmHg 70%
20:00 +8°C° 0 mm 2 mps 751 mmHg 71%
21:00 +8°C° 0 mm 2 mps 751 mmHg 71%
22:00 +8°C° 0 mm 2 mps 751 mmHg 72%
23:00 +8°C° 0 mm 2 mps 751 mmHg 73%

5 November, Thursday

Time Temperature Precipitation Wind Pressure Humidity
00:00 +7°C° 0 mm 2 mps 751 mmHg 74%
01:00 +7°C° 0 mm 2 mps 751 mmHg 75%
02:00 +7°C° 0 mm 2 mps 751 mmHg 77%
03:00 +7°C° 0 mm 2 mps 751 mmHg 78%
04:00 +7°C° 0 mm 2 mps 751 mmHg 79%
05:00 +7°C° 0 mm 2 mps 751 mmHg 80%
06:00 +7°C° 0 mm 2 mps 752 mmHg 80%
07:00 +6°C° 0 mm 2 mps 752 mmHg 81%
08:00 +7°C° 0 mm 2 mps 752 mmHg 78%
09:00 +7°C° 0 mm 3 mps 752 mmHg 75%
10:00 +7°C° 0 mm 3 mps 752 mmHg 73%
11:00 +7°C° 0 mm 3 mps 753 mmHg 70%
12:00 +8°C° 0 mm 3 mps 753 mmHg 68%
13:00 +8°C° 0 mm 3 mps 753 mmHg 66%
14:00 +8°C° 0 mm 3 mps 753 mmHg 68%
15:00 +8°C° 0 mm 2 mps 753 mmHg 70%
16:00 +7°C° 0 mm 2 mps 753 mmHg 72%
17:00 +7°C° 0 mm 2 mps 754 mmHg 75%
18:00 +6°C° 0 mm 2 mps 754 mmHg 79%
19:00 +5°C° 0 mm 2 mps 754 mmHg 82%
20:00 +5°C° 0 mm 2 mps 755 mmHg 84%
21:00 +4°C° 0 mm 2 mps 755 mmHg 85%
22:00 +4°C° 0 mm 2 mps 755 mmHg 87%
23:00 +4°C° 0 mm 2 mps 755 mmHg 88%
Show more